Lid_Strength_Index
-2 -2 -2 -1 -1 -1 -1 -1 -2 -1 -1 -1 -2 -2 -1 -1 -1 0 4 1 1 -1 -0 1 2 3 3 5 4 8 12 14 13 14 12 12 12 11 9 7 8 6 7 5 2
-2 -2 -2 -2 -1 -1 -1 -1 -2 -2 -1 -1 -1 -2 -1 -1 1 3 -1 -2 -2 -2 2 3 5 4 6 6 6 9 13 12 10 11 12 11 11 11 9 9 9 9 6 4 3
-1 -2 -2 -2 -2 -2 -2 -1 -2 -1 -1 -1 -1 -1 -1 -0 4 4 -1 -2 -2 -1 1 2 3 4 7 6 7 8 12 11 9 10 11 11 12 10 10 11 9 8 6 4 4
-1 -1 -2 -2 -2 -2 -2 -2 -2 -1 -1 -1 -2 -1 -1 1 11 3 -2 -2 -1 0 2 3 5 7 8 9 7 11 8 8 8 11 12 12 11 12 10 9 9 7 4 4 4
-1 -1 -1 -1 -1 -2 -2 -2 -2 -1 -1 -1 -2 -1 1 5 6 1 -1 -1 -0 2 4 5 6 7 9 8 8 9 9 7 7 10 12 11 12 12 10 12 8 6 4 5 4
-1 -1 -1 -1 -1 -2 -2 -2 -2 -1 -2 -1 -1 -1 4 9 1 1 0 0 1 2 4 4 6 5 7 8 9 8 8 8 7 9 11 13 13 13 12 8 6 5 5 5 5
-1 -1 -1 -1 -1 -1 -1 -1 -2 -1 -1 -1 -1 0 4 6 1 1 0 1 1 3 4 3 4 5 6 9 6 7 10 9 9 9 10 12 13 13 12 7 7 6 6 5 5
-1 -1 -1 -1 -1 -1 -1 -1 -1 -1 -2 -2 -1 3 7 1 1 2 2 2 1 2 3 4 4 5 6 6 8 10 10 13 9 10 10 11 15 12 11 7 7 7 7 6 5
0 -1 -1 -1 -1 -1 -1 -1 -1 -1 -1 -2 2 4 8 0 3 2 2 3 2 3 3 2 4 6 7 11 13 11 15 14 12 11 11 12 14 11 11 9 9 7 7 6 6
0 -1 -1 -1 -1 -1 -1 -1 -1 -1 -0 0 1 7 6 6 3 2 2 3 4 4 5 6 7 10 10 12 17 15 15 13 13 11 12 13 14 12 11 12 10 10 8 7 6
-1 -0 -1 -1 -1 -1 -0 1 5 5 4 6 6 7 6 4 2 3 2 3 4 6 10 8 11 13 12 10 11 11 13 14 11 10 12 13 13 12 11 13 13 13 11 8 6
-1 -1 -1 -1 -1 -1 0 4 5 5 8 4 4 5 4 3 7 5 2 7 8 11 9 11 13 10 9 9 11 11 13 13 12 11 12 12 13 12 12 11 11 11 12 11 10
-1 -1 -1 -1 -1 0 2 4 2 3 8 7 5 5 5 4 7 7 4 6 9 11 11 13 11 8 9 11 12 12 13 13 13 13 13 15 14 14 12 11 10 11 10 10 10
-1 -1 -1 -1 2 2 4 2 2 5 14 11 8 6 5 5 8 4 3 6 8 11 10 11 8 10 11 12 11 14 10 11 12 13 17 13 18 13 11 12 11 9 10 10 10
-0 -0 -0 -0 2 4 3 2 3 5 20 11 9 3 4 8 8 7 4 6 10 10 10 13 11 11 12 12 10 12 10 11 12 13 15 17 18 15 13 13 11 10 8 8 8
-0 -0 -0 1 2 2 2 3 4 13 19 16 8 9 9 8 9 6 7 5 6 10 9 11 9 9 10 9 9 9 11 12 12 14 19 15 16 15 15 12 10 9 9 8 8
-0 -0 0 2 4 2 2 5 14 18 15 14 12 9 10 11 10 9 10 11 13 15 15 12 11 9 8 11 9 11 13 19 20 20 20 14 17 14 13 13 11 9 9 9 8
-0 -0 0 1 2 2 4 10 18 19 19 12 11 10 12 11 11 11 11 13 10 11 14 16 17 12 9 11 12 12 13 18 22 21 19 16 18 14 11 10 12 11 11 12 12
-0 1 2 2 2 2 8 15 18 16 16 12 11 13 13 11 12 11 13 13 10 10 14 16 16 10 10 9 10 13 15 11 17 24 21 17 16 14 13 13 11 11 12 12 12
3 4 5 2 2 5 11 15 16 13 10 11 15 13 15 13 14 13 13 11 11 9 8 11 16 11 10 9 9 11 10 16 15 21 23 19 18 15 15 13 13 13 12 11 11
3 10 4 1 2 9 14 16 13 11 9 11 13 13 13 13 13 13 13 12 10 9 8 11 13 14 11 13 14 13 14 14 14 16 20 20 16 15 12 12 11 10 9 10 11
8 11 4 2 11 11 13 14 11 12 11 11 11 11 12 12 12 13 13 11 8 9 12 10 13 17 15 10 10 11 12 13 17 18 16 17 16 13 11 10 10 10 9 9 11
10 9 3 5 13 13 12 13 12 13 12 12 12 11 10 12 14 12 11 8 8 9 10 10 14 17 17 13 11 13 12 12 12 14 16 18 16 14 14 12 12 11 10 11 12
9 11 10 9 12 13 13 14 14 12 12 11 12 11 12 13 11 13 12 10 8 9 7 8 12 15 18 16 13 15 13 12 13 17 16 15 14 11 14 14 13 12 12 12 12
10 12 11 14 12 15 13 12 14 14 12 11 12 12 13 14 14 14 13 12 11 8 9 9 15 13 13 13 13 13 13 13 14 13 15 13 13 11 10 11 12 11 13 13 13
12 11 13 16 13 15 13 13 13 13 12 13 13 12 12 13 13 14 13 13 13 11 11 9 14 13 15 13 13 14 13 12 12 12 12 12 12 8 7 12 13 13 13 13 13
9 10 10 13 16 14 16 15 12 12 12 11 11 12 12 11 10 10 9 9 10 11 11 11 13 14 17 13 14 17 14 13 12 11 12 14 11 8 12 11 9 13 13 12 12